Previsão horária em Abraevo

Hoje, 16 Maio, Domingo

Tempo Temperatura Precipitação Vento Pressão Humidade
00:00 +20°C° 0 mm 2 m/s 751 mmHg 52%
01:00 +20°C° 0 mm 2 m/s 751 mmHg 52%
02:00 +19°C° 0 mm 2 m/s 751 mmHg 53%
03:00 +19°C° 0 mm 2 m/s 751 mmHg 53%
04:00 +18°C° 0 mm 2 m/s 751 mmHg 53%
05:00 +20°C° 0 mm 2 m/s 751 mmHg 52%
06:00 +21°C° 0 mm 2 m/s 751 mmHg 52%
07:00 +23°C° 0 mm 2 m/s 751 mmHg 52%
08:00 +25°C° 0 mm 3 m/s 751 mmHg 46%
09:00 +27°C° 0 mm 3 m/s 751 mmHg 41%
10:00 +29°C° 0 mm 4 m/s 751 mmHg 36%
11:00 +30°C° 0 mm 4 m/s 751 mmHg 33%
12:00 +32°C° 0 mm 4 m/s 751 mmHg 29%
13:00 +33°C° 0 mm 4 m/s 751 mmHg 26%
14:00 +33°C° 0 mm 4 m/s 751 mmHg 26%
15:00 +33°C° 0 mm 4 m/s 751 mmHg 26%
16:00 +33°C° 0 mm 4 m/s 751 mmHg 26%
17:00 +30°C° 0 mm 3 m/s 750 mmHg 31%
18:00 +29°C° 0 mm 3 m/s 750 mmHg 36%
19:00 +27°C° 0 mm 2 m/s 749 mmHg 42%
20:00 +26°C° 0 mm 2 m/s 749 mmHg 43%
21:00 +25°C° 0 mm 2 m/s 749 mmHg 44%
22:00 +24°C° 0 mm 2 m/s 749 mmHg 45%
23:00 +22°C° 0 mm 3 m/s 749 mmHg 47%

Amanhã, 17 Maio, Segunda-feira

Tempo Temperatura Precipitação Vento Pressão Humidade
00:00 +21°C° 0 mm 3 m/s 749 mmHg 48%
01:00 +20°C° 0 mm 3 m/s 749 mmHg 50%
02:00 +20°C° 0 mm 2 m/s 750 mmHg 51%
03:00 +19°C° 0 mm 2 m/s 750 mmHg 52%
04:00 +19°C° 0 mm 2 m/s 750 mmHg 53%
05:00 +20°C° 0 mm 2 m/s 750 mmHg 53%
06:00 +21°C° 0 mm 2 m/s 750 mmHg 54%
07:00 +23°C° 0 mm 2 m/s 750 mmHg 54%
08:00 +25°C° 0 mm 3 m/s 750 mmHg 49%
09:00 +27°C° 0 mm 3 m/s 750 mmHg 44%
10:00 +29°C° 0 mm 4 m/s 750 mmHg 39%
11:00 +30°C° 0 mm 4 m/s 750 mmHg 36%
12:00 +32°C° 0 mm 4 m/s 750 mmHg 33%
13:00 +33°C° 0 mm 4 m/s 750 mmHg 30%
14:00 +32°C° 0 mm 4 m/s 750 mmHg 30%
15:00 +31°C° 0 mm 3 m/s 749 mmHg 31%
16:00 +31°C° 0 mm 3 m/s 749 mmHg 31%
17:00 +28°C° 0.2 mm 3 m/s 749 mmHg 39%
18:00 +26°C° 0.2 mm 3 m/s 749 mmHg 47%
19:00 +24°C° 0.2 mm 2 m/s 749 mmHg 55%
20:00 +22°C° 0 mm 3 m/s 749 mmHg 57%
21:00 +21°C° 0 mm 4 m/s 749 mmHg 60%
22:00 +20°C° 0 mm 4 m/s 749 mmHg 62%
23:00 +20°C° 0 mm 4 m/s 749 mmHg 61%

Depois de amanhã, 18 Maio, Terça-feira

Tempo Temperatura Precipitação Vento Pressão Humidade
00:00 +19°C° 0 mm 3 m/s 749 mmHg 60%
01:00 +19°C° 0 mm 2 m/s 749 mmHg 59%
02:00 +19°C° 0 mm 2 m/s 749 mmHg 58%
03:00 +18°C° 0 mm 2 m/s 749 mmHg 57%
04:00 +19°C° 0 mm 1 m/s 749 mmHg 56%
05:00 +20°C° 0 mm 1 m/s 749 mmHg 54%
06:00 +22°C° 0 mm 1 m/s 749 mmHg 52%
07:00 +23°C° 0 mm 1 m/s 749 mmHg 50%
08:00 +25°C° 0 mm 1 m/s 749 mmHg 46%
09:00 +26°C° 0 mm 1 m/s 749 mmHg 43%
10:00 +28°C° 0 mm 2 m/s 749 mmHg 40%
11:00 +28°C° 0 mm 2 m/s 749 mmHg 40%
12:00 +29°C° 0 mm 2 m/s 749 mmHg 40%
13:00 +30°C° 0 mm 2 m/s 749 mmHg 40%
14:00 +30°C° 0 mm 3 m/s 748 mmHg 40%
15:00 +30°C° 0 mm 4 m/s 748 mmHg 41%
16:00 +30°C° 0 mm 4 m/s 748 mmHg 41%
17:00 +28°C° 0 mm 4 m/s 748 mmHg 47%
18:00 +27°C° 0 mm 4 m/s 748 mmHg 52%
19:00 +25°C° 0 mm 4 m/s 748 mmHg 58%
20:00 +22°C° 0 mm 3 m/s 749 mmHg 60%
21:00 +21°C° 0 mm 3 m/s 749 mmHg 62%
22:00 +19°C° 0 mm 2 m/s 749 mmHg 65%
23:00 +19°C° 0 mm 3 m/s 749 mmHg 67%

19 Maio, Quarta-feira

Tempo Temperatura Precipitação Vento Pressão Humidade
00:00 +18°C° 0 mm 3 m/s 749 mmHg 69%
01:00 +17°C° 0 mm 3 m/s 749 mmHg 71%
02:00 +16°C° 0 mm 3 m/s 749 mmHg 74%
03:00 +14°C° 0 mm 3 m/s 749 mmHg 76%
04:00 +13°C° 0 mm 3 m/s 749 mmHg 79%
05:00 +14°C° 0 mm 3 m/s 750 mmHg 76%
06:00 +16°C° 0 mm 3 m/s 750 mmHg 72%
07:00 +17°C° 0 mm 2 m/s 750 mmHg 69%
08:00 +25°C° 0 mm 3 m/s 750 mmHg 47%
09:00 +23°C° 0 mm 4 m/s 750 mmHg 50%
10:00 +22°C° 0 mm 4 m/s 750 mmHg 53%
11:00 +24°C° 0 mm 3 m/s 750 mmHg 52%
12:00 +25°C° 0 mm 3 m/s 750 mmHg 48%
13:00 +26°C° 0 mm 3 m/s 750 mmHg 44%
14:00 +26°C° 0 mm 4 m/s 750 mmHg 38%
15:00 +26°C° 0 mm 3 m/s 750 mmHg 35%
16:00 +27°C° 0 mm 3 m/s 750 mmHg 33%
17:00 +22°C° 0 mm 3 m/s 750 mmHg 52%
18:00 +23°C° 0 mm 2 m/s 750 mmHg 50%
19:00 +24°C° 0 mm 2 m/s 750 mmHg 49%
20:00 +21°C° 0 mm 2 m/s 750 mmHg 51%
21:00 +19°C° 0 mm 2 m/s 750 mmHg 53%
22:00 +18°C° 0 mm 3 m/s 750 mmHg 55%
23:00 +17°C° 0 mm 3 m/s 751 mmHg 55%

20 Maio, Quinta-feira

Tempo Temperatura Precipitação Vento Pressão Humidade
00:00 +16°C° 0 mm 3 m/s 751 mmHg 55%
01:00 +14°C° 0 mm 3 m/s 751 mmHg 55%
02:00 +14°C° 0 mm 3 m/s 751 mmHg 56%
03:00 +13°C° 0 mm 3 m/s 751 mmHg 56%
04:00 +12°C° 0 mm 3 m/s 752 mmHg 56%
05:00 +14°C° 0 mm 3 m/s 752 mmHg 55%
06:00 +16°C° 0 mm 3 m/s 752 mmHg 54%
07:00 +17°C° 0 mm 4 m/s 752 mmHg 53%
08:00 +18°C° 0 mm 4 m/s 752 mmHg 49%
09:00 +20°C° 0 mm 4 m/s 752 mmHg 45%
10:00 +22°C° 0 mm 4 m/s 752 mmHg 41%
11:00 +22°C° 0 mm 4 m/s 752 mmHg 39%
12:00 +23°C° 0 mm 4 m/s 752 mmHg 36%
13:00 +25°C° 0 mm 4 m/s 752 mmHg 34%
14:00 +25°C° 0 mm 4 m/s 751 mmHg 34%
15:00 +26°C° 0 mm 4 m/s 751 mmHg 33%
16:00 +26°C° 0 mm 3 m/s 751 mmHg 33%
17:00 +25°C° 0 mm 3 m/s 751 mmHg 38%
18:00 +24°C° 0 mm 2 m/s 751 mmHg 44%
19:00 +23°C° 0 mm 2 m/s 750 mmHg 50%
20:00 +22°C° 0 mm 1 m/s 750 mmHg 51%
21:00 +20°C° 0 mm 1 m/s 751 mmHg 53%
22:00 +19°C° 0 mm 1 m/s 751 mmHg 55%
23:00 +18°C° 0 mm 1 m/s 751 mmHg 56%

21 Maio, Sexta-feira

Tempo Temperatura Precipitação Vento Pressão Humidade
00:00 +16°C° 0 mm 1 m/s 751 mmHg 58%
01:00 +16°C° 0 mm 1 m/s 751 mmHg 59%
02:00 +15°C° 0 mm 1 m/s 751 mmHg 61%
03:00 +15°C° 0 mm 1 m/s 751 mmHg 62%
04:00 +14°C° 0 mm 1 m/s 751 mmHg 64%
05:00 +16°C° 0 mm 1 m/s 751 mmHg 61%
06:00 +18°C° 0 mm 1 m/s 751 mmHg 59%
07:00 +19°C° 0 mm 2 m/s 752 mmHg 57%
08:00 +20°C° 0 mm 2 m/s 752 mmHg 51%
09:00 +23°C° 0 mm 2 m/s 752 mmHg 46%
10:00 +25°C° 0 mm 2 m/s 752 mmHg 40%
11:00 +25°C° 0 mm 2 m/s 752 mmHg 37%
12:00 +26°C° 0 mm 2 m/s 752 mmHg 34%
13:00 +27°C° 0 mm 2 m/s 752 mmHg 31%
14:00 +27°C° 0 mm 2 m/s 751 mmHg 30%
15:00 +27°C° 0 mm 2 m/s 751 mmHg 30%
16:00 +27°C° 0 mm 2 m/s 751 mmHg 30%
17:00 +26°C° 0 mm 1 m/s 751 mmHg 35%
18:00 +25°C° 0 mm 1 m/s 751 mmHg 40%
19:00 +24°C° 0 mm 1 m/s 751 mmHg 45%
20:00 +23°C° 0 mm 1 m/s 751 mmHg 45%
21:00 +21°C° 0 mm 1 m/s 751 mmHg 46%
22:00 +18°C° 0 mm 0 m/s 751 mmHg 47%
23:00 +19°C° 0 mm 1 m/s 752 mmHg 48%
Mostrar mais

Necessitamos do seu Consentimento

A Meteoprog e os seus Fornecedores de Serviços podem armazenar e aceder a dados pessoais como cookies, identificadores do dispositivo ou outras tecnologias semelhantes existentes no seu dispositivo e processar estes dados para personalizar conteúdos e anúncios, assim como funcionalidades nas redes sociais e análise de tráfego.

  • Armazenar e/ou aceder a informações no seu dispositivo

    Os cookies, identificadores do dispositivo ou outras informações podem ser armazenados ou acedidos no seu dispositivo, para os fins acima indicados.

  • Anúncios e conteúdos personalizados, medição de anúncios e conteúdos, dados sobre o público-alvo e desenvolvimento de produtos

    Os anúncios e os conteúdos podem ser personalizados com base num perfil. Podem ser adicionados dados adicionais para uma maior personalização dos anúncios e dos conteúdos. A eficácia dos anúncios e dos conteúdos pode ser medida. Podem ser obtidas informações sobre o público que visualizou os anúncios e os conteúdos. Estes dados podem ser usados para desenvolver ou melhorar sistemas, softwares ou a experiência do utilizador.

Ao clicar em "Eu concordo”, permitirá o uso de cookies, identificadores do dispositivo e web beacons mencionados ou outras tecnologias semelhantes. As configurações do navegador do seu dispositivo podem ser alteradas.

Para certos fins, podem ser invocados interesses legítimos ao invés de consentimento. Pode ler mais informação sobre este assunto na nossa Política de Privacidade e Cookies.